カタログに戻る

STARLINK-35676

運用中通信VLEO
NORAD 67345·PAYLOAD·🇺🇸 United States

打ち上げ Jan 9, 2026 から Cape Canaveral Space Force Station

Loading…

次のパス (今後24時間)

TLE

最新Source: CelesTrak SupGP

元期: Sep 14, 2026, 21:16 UTC

1 67345C 26003M   26257.88659722  .00038111  00000+0  13804-2 0  2573
2 67345  42.9993 238.3917 0001303 263.5125  12.1805 15.27560267    16

AllMySatでSTARLINK-35676をリアルタイム追跡

Download on the App Store